347  
NZUS99 KDVN 090210  
HRRRRR  
HOURLY WEATHER ROUNDUP  
NATIONAL WEATHER SERVICE QUAD CITIES IA IL  
900 PM CDT MON AUG 08 2022  
 
NOTE: "FAIR" INDICATES FEW OR NO CLOUDS BELOW 12,000 FEET WITH  
NO SIGNIFICANT WEATHER AND/OR OBSTRUCTIONS TO VISIBILITY.  
------------------------------------------------------------------  
 
CITY SKY/WX TMP DP RH WIND PRES REMARKS  
BURLINGTON PTCLDY 69 63 81 N6 30.03R  
CEDAR RAPIDS MOCLDY 69 62 78 N6 30.03S  
DAVENPORT CLEAR 67 63 87 N6 30.04R  
DUBUQUE CLEAR 67 63 87 CALM 30.05R  
IOWA CITY MOCLDY 71 62 73 CALM 30.04S  
MOLINE CLOUDY 72 64 76 N3 30.02R  
------------------------------------------------------------------  
THE STATIONS BELOW ARE NOT NWS STATIONS AND ARE NOT SUBJECT TO NWS  
QUALITY CONTROL. SOME STATIONS DO NOT REPORT WEATHER SUCH AS FOG.  
* - STATIONS THAT REPORT TMP AND DP IN WHOLE DEGREES CELSIUS, WHICH  
ARE THEN CONVERTED TO FAHRENHEIT.  
------------------------------------------------------------------  
 
CITY SKY/WX TMP DP RH WIND PRES REMARKS  
CLINTON PTCLDY 67 67 100 N6 30.04R  
FAIRFIELD * CLEAR 66 63 88 CALM 30.04R  
FORT MADISON * CLOUDY 68 64 88 N5 30.03R  
FREEPORT CLEAR 66 66 99 NE3 30.06R  
INDEPENDENCE MOCLDY 65 63 94 N5 30.08R  
KEOKUK * CLOUDY 73 66 78 N10 30.02R  
MACOMB CLOUDY 71 62 75 N10 30.05R  
MONTICELLO * NOT AVBL  
MT PLEASANT * NOT AVBL  
MUSCATINE * CLEAR 68 68 100 N3 30.03R  
SAVANNA * NOT AVBL  
STERLING/R.F. CLOUDY 70 66 87 N9 30.03R  
VINTON CLEAR 71 65 80 CALM 30.05S  
WASHINGTON * CLEAR 66 64 94 NW5 30.02R  
------------------------------------------------------------------  
 
 
CLICK HERE TO GO TO PREVIOUS BULLETINS.

The Nexlab IL Page
The Nexlab IA Page
The Nexlab MO Page Main Text Page